Regional Weather Roundup
Issued by NWS

Home | Current Version | Previous Version | Graphics & Text | Print | Product List | Glossary On
Versions: 1 2 3 4 5 6 7 8 9 10 11 12 13 14 15 16 17 18 19 20 21 22 23 24 25 26 27 28 29 30 31 32 33 34 35 36 37 38 39 40 41 42 43 44 45 46 47 48 49 50
000
ASUS45 KBOI 030210
RWRID

IDAHO REGIONAL WEATHER ROUNDUP
NATIONAL WEATHER SERVICE BOISE ID
800 PM MDT TUE JUN 02 2015

NOTE: "FAIR" INDICATES FEW OR NO CLOUDS BELOW 12000 FEET
WITH NO SIGNIFICANT WEATHER AND/OR OBSTRUCTIONS TO VISIBILITY

IDZ012-014-030300-
SOUTHWEST IDAHO


CITY           SKY/WX    TMP DP  RH WIND       PRES   REMARKS
BOISE          MOSUNNY   68  44  42 N6        29.92S
CALDWELL       MOSUNNY   70  45  40 SW5       29.92S
MOUNTAIN HOME  MOSUNNY   74  39  28 N13       29.91R
$$

IDZ016-017-030300-
SOUTHCENTRAL IDAHO


CITY           SKY/WX    TMP DP  RH WIND       PRES   REMARKS
BURLEY         SUNNY     70  41  34 W3        29.94R
JEROME         SUNNY     71  37  28 W14       29.94F
TWIN FALLS     SUNNY     72  39  30 W7        29.92F
$$

IDZ019>023-030300-
SOUTHEAST IDAHO


CITY           SKY/WX    TMP DP  RH WIND       PRES   REMARKS
IDAHO FALLS    CLEAR     68  42  38 SW8G22    29.96R
POCATELLO      PTCLDY    69  46  43 W12       29.96S
REXBURG        CLEAR     66  38  35 SW13      29.95S
$$

IDZ006-010-011-018-031-032-030300-
CENTRAL IDAHO MOUNTAINS


CITY           SKY/WX    TMP DP  RH WIND       PRES   REMARKS
MCCALL         CLOUDY    55  39  54 VRB3      30.02R
HAILEY         MOSUNNY   63  36  36 SW12      30.00F
STANLEY          N/A     58  33  39 CALM      30.05S
SALMON           N/A     63  45  51 NW7       29.93R
CHALLIS        MOSUNNY   66  29  24 W12       29.94R
$$

IDZ002-004-006-007-026-030300-
NORTHERN IDAHO


CITY           SKY/WX    TMP DP  RH WIND       PRES   REMARKS
LEWISTON       LGT RAIN  66  47  50 NW21G26   29.93R
LOWELL           N/A    N/A N/A N/A CALM      30.01R
COEUR D`ALENE  CLOUDY    63  46  55 S9        29.92S
MULLAN PASS    PTSUNNY   44  41  89 VRB5      30.04S
$$


USA.gov is the U.S. government's official web portal to all federal, state and local government web resources and services.